Location: �chenoz-la-M�line
(47.6009°N, 6.1354°E)
Time: 03:54:00
(UTC+00:00)

Cosmos 1758 Rocket - Pass Details

Date: 27 January 2021
Orbit: 602 x 636 km, 82.5° (Epoch: 27 February)

Event Time Altitude Azimuth Distance (km) Brightness Sun altitude
Rises 05:56:30 0° 341° (NNW) 2,944 6.7 -12.1°
Reaches altitude 10° 05:58:57 10° 332° (NNW) 2,028 5.8 -11.7°
Maximum altitude 06:02:53 31° 270° (W) 1,118 4.3 -11.1°
Drops below altitude 10° 06:06:47 10° 209° (SSW) 1,998 6.0 -10.4°
Sets 06:09:10 0° 199° (SSW) 2,894 7.0 -10.1°
